Location: Newark
(36.1358°N, 115.1208°W)
Time: 13:24:11
(UTC+00:00)

Vanguard 1 Rocket - Pass Details

Date: 21 February 2020
Orbit: 650 x 4227 km, 34.3° (Epoch: 30 March)

Event Time Altitude Azimuth Distance (km) Brightness Sun altitude
Rises 13:44:29 0° 275° (W) 3,226 - -8.2°
Exits shadow 13:46:52 - 271° (W) 2,212 8.7 -7.7°
Reaches altitude 10° 13:47:03 10° 271° (W) 2,138 8.6 -7.7°
Maximum altitude 13:51:29 56° 192° (SSW) 773 7.0 -6.8°
Drops below altitude 10° 13:56:04 10° 114° (ESE) 2,209 10.9 -5.9°
Sets 13:58:46 0° 110° (ESE) 3,347 12.5 -5.3°
